Regional Weather Roundup
Issued by NWS

Home | Current Version | Previous Version | Text Only | Print | Product List | Glossary Off
Versions: 1 2 3 4 5 6 7 8 9 10 11 12 13 14 15 16 17 18 19 20 21 22 23 24 25 26 27

000
ASUS45 KTFX 211510
RWRMT
MONTANA REGIONAL WEATHER ROUNDUP
NATIONAL WEATHER SERVICE GREAT FALLS MT
900 AM MDT MON AUG 21 2017

NOTE: "FAIR" INDICATES FEW OR NO CLOUDS BELOW 12000 FEET WITH NO
SIGNIFICANT WEATHER AND/OR OBSTRUCTIONS TO VISIBILITY.

MTZ001>007-043-211600-
WEST OF THE DIVIDE

CITY           SKY/WX    TMP DP  RH WIND       PRES   REMARKS
KALISPELL      SUNNY     58  41  53 CALM      30.20R
MISSOULA       HAZE      56  40  55 S3        30.22R VSB 1
BUTTE          SUNNY     52  33  48 CALM      30.28S
MULLAN PASS    SUNNY     57  34  41 CALM      30.29R
ANACONDA         N/A     61  34  36 CALM      30.26R
DEER LODGE       N/A     55  37  50 CALM      30.28R
EUREKA           N/A     59  39  47 MISG        N/A
HAMILTON         N/A     55  39  54 S3        30.23R
LIBBY            N/A     55  41  58 CALM      30.20R
RONAN            N/A     63  47  55 CALM      30.22R
$$

MTZ008-052>055-211600-
SOUTHWEST MONTANA

CITY           SKY/WX    TMP DP  RH WIND       PRES   REMARKS
BOZEMAN        SUNNY     57  35  43 SE3       30.23R
DILLON         SUNNY     52  37  56 SW7       30.25R
W YELLOWSTONE  SUNNY     50  36  57 CALM      30.31R
ENNIS          SUNNY     59  30  33 CALM      30.30R
THREE FORKS      N/A     54  39  56 CALM      30.19R
TWIN BRIDGES     N/A     54  34  46 CALM      30.21R
$$

MTZ009-010-012-014-046-048-049-054-211600-
EAST SLOPES AND CENTRAL MONTANA

CITY           SKY/WX    TMP DP  RH WIND       PRES   REMARKS
CUT BANK       SUNNY     57  38  48 NW12      30.22R
GREAT FALLS    SUNNY     62  33  33 W12       30.19R
MALMSTROM AFB  SUNNY     60  35  38 W8        30.20R
HELENA         SUNNY     61  37  41 CALM      30.21R
AUGUSTA          N/A     61  32  34 N18       30.21R
BOWMANS CRNR     N/A     59  36  42 W5        30.20R
CHOTEAU          N/A     63  34  34 N13       30.22R
FAIRFIELD        N/A     60  33  36 NW13      30.19R
POWER            N/A     59  33  38 NW18      30.18R
RAYNESFORD       N/A     60  35  39 CALM      30.20R
ULM              N/A     62  31  32 CALM      30.19R
$$

MTZ011-013-016-021-045-047-050-051-211600-
NORTH CENTRAL MONTANA

CITY           SKY/WX    TMP DP  RH WIND       PRES   REMARKS
HAVRE          SUNNY     63  36  36 E15       30.17R
LEWISTOWN      CLOUDY    61  34  36 E5        30.19R
N BAR RANCH      N/A     68  32  26 VRB6      30.22R
CHINOOK          N/A     63  39  42 NE3       30.18R
DENTON           N/A     60  32  35 CALM      30.14R
GEYSER           N/A     67  34  29 W12       30.18R
GRASS RANGE      N/A     69  31  24 SW13      30.14R
JUDITH GAP       N/A     63  32  30 S9        30.21R
WINIFRED         N/A     61  31  32 N10       30.18R
$$

MTZ017>020-022>027-061-062-211600-
NORTHEAST MONTANA

CITY           SKY/WX    TMP DP  RH WIND       PRES   REMARKS
GLASGOW        MOSUNNY   63  37  38 CALM      30.13R
JORDAN           N/A     68  34  28 N9        30.13R
SIDNEY         SUNNY     67  42  40 N14G23    30.08R
WOLF POINT     SUNNY     70  36  28 NE10      30.10R
MALTA          SUNNY     64  36  34 NE12      30.15R
PLENTYWOOD       N/A     61  39  44 NW14      30.08R
POPLAR           N/A     64  39  39 NE8       30.10R
$$

MTZ028>42-056>058-211600-
SOUTHCENTRAL AND SOUTHEAST MONTANA

CITY           SKY/WX    TMP DP  RH WIND       PRES   REMARKS
BAKER          SUNNY     69  38  32 NW15      30.09R
BILLINGS       MOSUNNY   64  40  41 CALM      30.17R
LIVINGSTON     SUNNY     54  36  50 W6        30.23R
MILES CITY     SUNNY     68  33  27 NW8       30.11R
BIG TIMBER     SUNNY     59  30  33 W5        30.25R
HARLOWTON        N/A     60  30  32 MISG      30.21R
LAUREL           N/A     64  34  32 CALM      30.15F
$$

REGIONAL REPORTS...DAKOTAS

CITY           SKY/WX    TMP DP  RH WIND       PRES   REMARKS
WILLISTON      SUNNY     67  44  43 N20G28    30.04R
MINOT          CLOUDY    62  53  72 SE6       29.94S
DICKINSON      SUNNY     67  48  50 NW15      30.01R
BEACH            N/A     64  41  42 N16       30.10R
CROSBY           N/A     63  43  48 NW16G23   30.04R
TIOGA            N/A     64  45  48 NW18G25   30.02R
WATFORD CITY     N/A     66  45  45 NW13G20   30.03R
BISMARCK       MOSUNNY   66  53  63 S7        29.98S
GRAND FORKS    CLOUDY    66  52  60 S9        29.95F
FARGO          CLOUDY    64  58  80 SE7       29.96F
BUFFALO SD       N/A     69  47  45 N16       30.00R
RAPID CITY     SUNNY     68  54  60 N15       30.05R
$$

REGIONAL REPORTS...WYOMING/IDAHO/WASHINGTON

CITY           SKY/WX    TMP DP  RH WIND       PRES   REMARKS
GILLETTE       SUNNY     68  41  37 N17       30.16R
SHERIDAN       MOSUNNY   68  39  34 W7        30.19R
BUFFALO WY     SUNNY     68  36  30 N15       30.23R
CODY           SUNNY     65  39  38 CALM      30.24R
YELLOWSTONE LA   N/A     52  44  74 E3        30.38R
IDAHO FALLS    MOSUNNY   60  38  43 SW6       30.20R
SALMON         SUNNY     52  41  66 NW3       30.23R
BOISE          SUNNY     65  39  38 CALM      30.11R
SPOKANE        MOSUNNY   62  45  53 E9        30.16R
$$

REGIONAL REPORTS...ALBERTA

CITY           SKY/WX    TMP DP  RH WIND       PRES   REMARKS
EDMONTON       SUNNY     55  50  82 SW5       30.12R
CALGARY        MOSUNNY   54  41  62 SW3       30.20R
LETHBRIDGE     MOSUNNY   57  41  54 SW3       30.21S
MEDICINE HAT   PTSUNNY   61  43  51 N5        30.18R
$$

REGIONAL REPORTS...SASKATCHEWAN

CITY           SKY/WX    TMP DP  RH WIND       PRES   REMARKS
SWIFT CURRENT  MOSUNNY   59  45  58 NW10      30.15R
REGINA         MOSUNNY   61  43  51 NW15      30.07R
SASKATOON      SUNNY     57  46  67 NW14      30.09R
$$




USA.gov is the U.S. government's official web portal to all federal, state and local government web resources and services.